Wind_Speed
23 22 24 27 30 31 32 33 33 33 33 32 30 28 26 24 23 22 22 22 24 25 25 25 25 24 25 25 25 25 23 21 20 18 17 16 17 17 17 16 15 14 13 12 12 12 12 11 11 10 8 8 9 9 9 9 8 7 6 5 5 6 7 8 9 8 10 12 12 12 12 13 13 14 15 16 17 18 18 19 20 21 22 23 24
24 22 22 23 25 27 29 31 32 33 34 33 32 29 28 26 24 24 24 24 25 26 26 27 27 27 27 27 27 26 24 23 22 20 19 19 19 19 18 17 17 16 16 15 15 15 15 14 13 12 11 10 10 10 9 9 9 8 7 7 7 7 8 8 9 10 11 13 14 14 14 14 14 15 16 17 18 19 20 21 23 24 25 26 27
24 23 23 23 23 23 25 27 29 32 33 34 33 31 29 28 26 26 26 25 26 27 28 29 29 29 29 29 29 27 26 25 23 22 21 21 20 19 18 17 16 17 18 17 17 17 17 16 15 15 14 12 11 12 11 10 9 9 9 9 9 9 10 10 10 10 11 13 15 15 15 15 15 16 17 18 19 20 21 23 25 27 28 28 29
24 25 25 25 24 24 24 25 27 29 31 31 32 31 30 29 27 27 27 27 26 27 29 30 31 32 32 31 30 29 27 26 25 24 23 22 21 20 18 17 16 17 19 19 19 19 18 17 17 17 16 14 12 12 13 12 11 10 10 10 10 11 12 11 12 12 12 13 14 16 16 16 16 17 18 20 22 22 23 25 27 28 28 29 30
25 26 26 26 26 26 26 26 27 28 28 29 29 29 29 29 28 28 29 28 27 28 30 31 33 34 33 32 31 29 28 27 26 25 25 24 22 21 19 18 18 19 20 20 20 20 19 18 19 20 19 16 12 13 14 14 13 12 11 11 12 12 13 13 13 14 14 14 14 16 17 17 18 19 20 22 24 25 26 27 28 29 29 30 31
25 26 27 28 28 28 28 28 28 28 27 27 27 27 28 29 28 30 31 30 28 29 30 32 34 35 34 33 32 30 28 27 27 27 26 25 24 22 20 20 21 22 22 21 21 21 20 20 20 21 21 18 14 14 15 16 15 14 13 13 13 14 14 14 14 15 16 16 16 17 18 19 20 21 23 25 26 28 29 29 29 30 31 32 33
26 26 28 30 30 31 30 30 30 29 27 25 25 25 27 28 29 31 33 31 30 30 30 32 35 35 35 35 33 31 30 29 28 28 27 26 25 23 22 22 23 24 23 22 22 21 20 20 21 23 23 21 18 16 16 18 18 16 14 14 15 16 16 16 16 17 17 18 18 19 20 21 22 23 25 27 28 29 30 30 30 31 33 34 34
26 27 29 31 33 33 31 30 30 29 28 26 24 25 26 27 29 32 34 33 32 31 31 32 35 36 36 36 35 33 32 31 30 29 28 27 26 24 24 24 25 25 24 23 22 22 21 21 23 26 25 24 21 19 18 19 20 18 15 15 17 17 17 18 18 19 19 19 19 20 22 23 24 25 26 27 28 29 30 31 32 32 32 33 33
28 28 30 33 35 34 31 29 29 30 30 28 26 25 26 26 29 33 35 35 34 33 32 34 35 36 37 37 36 35 34 34 32 31 30 28 26 25 25 26 27 26 25 24 23 22 23 23 26 28 28 26 25 23 21 22 22 20 17 17 18 19 20 20 21 21 20 20 19 21 23 24 24 26 27 28 29 30 30 32 33 33 33 32 32
30 31 32 34 35 33 31 29 30 31 32 31 28 27 26 27 29 33 35 35 35 35 35 36 37 37 38 39 38 38 37 36 34 32 30 28 28 27 27 28 29 28 27 26 24 23 24 27 29 30 30 29 28 27 25 23 23 21 19 19 20 21 22 23 23 22 22 22 21 23 24 23 24 27 28 29 30 31 32 34 35 34 35 35 34
30 31 33 34 33 32 31 30 31 32 33 33 31 29 28 27 29 32 34 35 37 37 37 38 38 38 39 40 40 39 38 37 35 32 31 30 30 30 30 30 30 30 29 27 25 24 27 30 32 31 30 30 30 30 28 25 23 22 20 21 21 23 24 24 24 24 23 23 24 24 25 25 26 28 30 30 31 32 33 34 35 36 36 37 36
31 32 33 32 31 30 30 30 31 32 34 35 34 32 31 29 29 31 34 35 37 38 38 39 39 39 40 41 41 40 39 37 35 33 32 32 32 32 32 32 32 32 30 28 27 28 30 31 30 28 28 29 29 29 28 25 23 22 21 22 23 24 25 25 25 24 24 24 24 25 26 26 27 29 30 31 31 32 33 34 35 37 37 37 38
32 32 32 31 30 29 29 29 30 31 33 36 36 35 34 32 30 31 33 35 37 38 39 39 40 41 42 42 41 41 40 38 36 35 34 34 34 34 33 33 32 31 30 30 30 30 30 28 26 25 26 27 27 28 27 24 22 22 22 23 24 25 26 25 25 24 24 25 25 26 27 27 28 29 31 32 32 33 34 34 35 36 37 37 38
32 32 32 31 30 29 29 30 29 29 31 34 38 38 37 36 33 31 33 35 37 39 39 40 40 41 42 43 42 42 40 39 37 37 36 36 36 35 34 33 32 30 30 30 29 27 26 25 24 23 25 27 28 27 27 24 22 22 23 24 24 25 25 24 23 23 24 24 25 26 27 28 29 30 32 33 33 34 34 34 35 36 36 37 37
30 30 30 30 30 30 31 31 31 29 29 33 38 41 41 39 36 34 34 36 37 38 39 40 40 41 41 43 43 42 41 39 39 38 38 37 37 36 34 33 32 31 31 30 27 24 23 24 25 27 27 29 29 28 27 25 23 23 23 24 24 25 25 23 22 22 23 23 24 26 27 28 29 31 32 33 33 34 34 34 35 37 37 37 37
29 28 28 28 30 32 32 33 33 31 30 33 39 42 43 42 40 38 37 37 37 39 39 40 41 41 41 42 42 42 40 40 40 40 39 38 38 37 36 33 32 32 32 30 27 24 23 23 25 27 27 27 29 29 27 26 25 24 24 24 25 25 24 22 22 22 23 24 25 27 28 29 30 31 32 33 32 33 34 35 36 37 37 38 38
30 29 29 30 31 32 32 33 34 32 31 33 37 41 43 44 42 41 40 39 38 40 41 41 41 41 42 42 41 41 41 42 42 41 40 39 39 39 37 34 32 31 29 26 23 22 22 22 23 23 24 25 27 27 27 27 26 24 24 24 25 24 23 21 22 22 23 24 25 27 28 29 30 31 32 32 32 33 35 36 36 37 37 38 38
31 31 32 31 28 27 27 28 29 30 30 32 35 37 40 43 43 43 43 42 40 40 41 42 42 42 43 43 42 42 42 43 44 42 41 41 41 40 37 36 35 30 23 20 18 17 18 20 21 22 23 24 25 26 26 27 26 25 25 25 24 23 22 21 22 22 23 24 26 27 28 29 30 31 31 32 33 34 35 36 36 36 37 37 37
32 33 30 26 22 22 22 24 27 29 31 32 33 34 36 39 42 44 46 45 43 42 41 42 43 44 45 46 45 44 45 46 46 44 42 41 41 39 37 37 37 32 25 20 19 17 16 18 21 24 23 23 24 25 26 26 25 24 24 24 23 21 21 20 21 22 23 26 27 27 28 29 29 30 32 33 34 35 35 35 35 36 36 35 35
30 27 23 20 20 20 20 23 26 29 31 32 32 33 35 36 39 43 46 47 47 46 44 43 44 45 46 48 47 46 46 46 46 44 43 42 41 40 38 36 35 34 30 24 20 17 16 20 25 26 24 22 23 25 26 25 24 23 23 23 22 21 20 19 20 21 23 25 27 27 28 29 29 31 32 33 34 34 34 34 34 34 34 33 33
25 22 20 20 21 21 23 26 28 28 29 29 30 30 31 32 36 40 45 48 49 49 48 47 46 46 47 48 48 46 45 46 46 45 43 42 42 42 39 33 29 29 29 24 19 18 20 25 29 28 25 22 22 23 24 24 23 23 22 22 22 20 19 19 20 21 22 24 25 27 28 29 30 32 33 33 33 33 33 33 32 32 32 32 31
26 25 23 23 23 24 26 29 30 28 26 27 27 27 26 27 32 37 42 46 48 49 50 50 49 49 49 49 48 47 46 47 47 46 44 44 44 45 43 35 28 28 29 25 20 19 23 28 30 29 26 22 22 23 24 24 22 21 20 20 20 19 18 18 20 21 22 23 25 26 27 29 30 32 33 33 32 31 31 30 30 30 29 30 30
29 29 28 27 27 27 28 30 30 29 29 28 27 27 26 27 29 33 38 43 45 46 48 50 52 52 51 51 50 49 48 49 49 48 46 45 46 46 44 38 31 28 28 26 20 18 22 27 29 30 27 22 21 23 23 22 20 19 18 18 18 17 17 18 20 21 21 23 24 26 27 28 30 31 31 32 32 31 30 29 28 28 28 28 29
33 33 33 32 32 32 31 31 31 32 32 32 32 31 30 30 30 31 35 39 42 44 45 49 52 53 53 53 52 51 51 51 51 50 48 48 48 47 44 40 34 27 26 26 22 20 22 26 29 31 27 20 20 21 21 19 18 17 17 17 16 16 17 18 19 20 21 22 24 25 26 27 29 29 30 30 30 30 29 28 28 28 28 28 29
35 35 35 35 35 35 33 33 34 36 36 37 37 37 36 35 35 35 35 37 40 41 43 46 49 52 53 53 53 53 54 53 52 51 51 50 49 47 44 42 38 30 24 23 22 21 24 27 30 31 27 20 19 20 19 18 17 17 16 15 14 15 16 17 18 18 20 22 24 25 26 26 26 27 28 28 28 28 28 28 27 28 28 28 28
36 36 36 36 36 37 38 37 37 39 41 42 43 43 42 40 39 38 38 39 40 41 42 43 46 49 51 52 53 55 55 54 52 53 54 53 51 48 44 42 39 32 25 23 23 24 26 29 31 31 26 20 19 19 18 17 17 16 14 13 13 14 15 16 16 18 20 22 23 24 24 24 24 25 26 27 26 27 27 26 26 26 27 27 28
41 41 41 42 42 42 43 42 42 44 45 47 49 50 49 48 46 45 44 44 44 44 45 44 45 47 48 50 52 55 55 52 50 52 54 54 52 49 46 43 41 36 31 29 28 27 27 29 32 30 25 21 20 20 18 18 17 15 13 12 13 14 14 14 16 17 20 21 22 23 23 23 23 25 25 25 25 26 26 25 25 25 26 26 27
41 43 44 46 47 47 47 48 49 49 49 50 51 52 53 53 53 52 50 48 47 48 49 50 49 49 48 50 52 55 54 50 47 48 50 51 50 49 47 44 40 36 34 32 31 30 29 30 32 30 25 22 22 20 18 18 16 14 13 12 12 13 13 14 16 18 19 20 21 22 23 23 23 24 24 24 24 24 24 24 24 25 25 26 26
37 38 40 42 45 46 48 50 51 52 51 52 52 52 53 54 55 56 56 54 53 52 52 54 53 50 48 48 51 54 55 51 47 43 40 40 42 42 40 37 35 35 34 34 33 31 29 29 30 29 25 24 23 20 19 18 16 14 13 12 12 13 13 14 16 18 19 19 20 21 22 22 22 23 22 22 23 23 23 23 23 24 24 25 25
37 38 39 41 43 45 47 48 50 51 51 51 52 52 52 54 55 57 58 58 58 57 56 55 55 52 49 47 48 52 52 48 43 41 37 33 33 33 31 31 34 36 35 33 31 30 30 32 32 28 26 24 22 21 20 18 16 14 13 13 13 14 14 15 17 18 18 19 20 21 21 21 21 21 21 21 21 21 22 22 23 23 23 24 23
40 41 43 45 46 47 48 49 49 49 50 51 52 53 53 54 56 57 57 57 57 58 59 58 57 56 53 51 52 54 50 43 40 41 42 41 39 35 34 35 37 36 34 31 29 30 33 32 29 26 26 25 23 21 20 18 16 14 13 13 14 14 15 17 18 18 18 19 20 21 20 20 20 20 19 19 19 20 21 21 21 22 23 23 23
42 43 45 48 49 50 50 49 49 48 49 50 51 53 54 55 56 55 55 54 53 55 58 60 60 59 59 59 60 57 48 40 38 40 44 48 46 41 39 40 39 36 32 28 27 28 29 27 25 25 25 24 22 21 20 18 16 14 14 14 15 16 17 18 19 18 18 20 20 20 19 19 19 19 18 18 19 19 19 19 20 21 22 22 22
42 43 45 47 48 49 49 49 49 50 51 52 53 53 55 56 57 56 54 52 53 54 57 59 60 60 61 61 60 55 45 36 35 40 44 47 45 42 41 41 37 32 28 26 26 26 24 23 23 24 24 22 21 20 19 18 16 15 15 15 16 17 18 19 19 18 19 20 19 19 18 18 18 18 18 18 18 18 17 18 19 21 21 21 21
37 38 39 40 42 43 45 48 50 53 55 56 56 55 56 58 59 58 56 55 54 55 58 60 61 61 62 60 55 47 38 32 34 39 42 43 43 41 39 37 34 31 28 26 24 22 21 22 23 23 22 21 20 20 19 17 16 16 16 17 18 19 20 20 19 19 20 21 19 18 18 18 18 18 17 18 17 16 16 17 18 20 21 20 20
24 25 26 28 30 33 37 40 44 47 50 53 55 56 58 59 60 61 60 58 57 56 59 62 61 59 56 52 44 38 33 30 31 36 38 39 40 38 36 34 32 30 27 23 20 19 20 22 22 21 20 20 19 19 18 18 17 17 17 18 19 20 21 20 19 20 21 21 20 19 19 19 18 18 18 18 17 15 15 17 18 19 20 20 19
18 19 20 21 22 25 27 30 32 34 38 41 45 49 52 54 57 59 60 59 60 60 59 59 59 55 46 37 32 29 28 28 30 33 36 37 35 32 30 29 28 25 22 19 17 18 21 22 21 20 20 19 19 19 19 18 17 18 18 19 20 21 21 20 20 21 22 22 21 20 20 19 19 18 18 17 16 15 15 17 18 19 19 19 18
16 16 16 18 20 22 24 26 28 31 33 33 34 37 41 44 47 51 54 56 57 57 56 55 53 49 46 41 33 27 27 29 31 35 38 37 32 27 25 24 24 23 21 18 18 20 22 22 21 20 20 20 20 19 19 18 19 19 19 20 21 22 21 20 20 22 23 23 21 21 20 20 19 19 18 17 15 15 15 17 18 18 19 19 19
17 16 15 16 18 21 22 22 22 23 24 24 24 24 25 27 29 35 46 53 52 48 46 41 34 34 38 39 34 29 29 32 35 37 36 30 26 24 22 22 23 22 19 18 19 21 21 21 20 20 20 20 19 19 19 19 19 19 20 21 22 22 21 20 22 23 24 23 22 21 21 20 19 19 18 17 15 15 16 16 17 18 19 19 19
16 16 16 16 17 19 19 18 18 19 19 18 18 17 13 9 9 11 12 19 26 28 28 27 24 23 23 27 28 28 29 30 31 30 26 21 20 20 22 22 22 21 19 19 21 21 21 20 21 21 20 20 19 19 19 20 20 20 21 22 22 22 21 21 23 25 25 23 21 21 21 20 19 19 17 16 15 15 16 16 17 18 18 19 19
13 15 16 17 18 18 17 17 18 18 17 14 12 12 11 9 8 9 10 12 15 17 17 18 18 18 17 18 18 18 20 20 20 19 17 16 16 18 20 22 23 22 21 21 21 21 21 21 20 20 20 20 19 19 19 20 20 21 22 23 22 22 22 23 25 26 25 22 21 21 20 20 20 18 17 16 15 16 16 17 17 18 18 18 18
14 16 17 17 17 16 15 15 17 17 14 9 7 5 5 6 6 4 4 5 6 6 7 9 11 13 13 13 14 15 15 15 15 14 13 13 15 17 19 21 22 21 22 22 21 20 20 20 20 20 20 19 19 19 19 20 21 22 22 23 23 23 24 25 25 25 23 21 20 20 20 20 20 18 16 15 16 16 17 17 18 18 18 18 18
16 16 15 15 16 17 16 13 13 14 12 8 4 3 2 1 1 1 0 1 3 4 5 7 9 10 11 14 16 16 15 15 14 12 12 14 16 18 19 19 20 21 20 20 20 20 20 20 20 20 19 18 18 19 20 21 22 22 23 23 24 24 24 24 24 23 21 20 20 20 20 20 20 17 16 16 16 17 17 18 18 18 18 18 18
15 14 14 15 16 17 16 13 9 9 9 7 5 4 3 4 6 6 6 6 5 6 7 7 9 10 11 13 13 14 15 15 14 15 16 18 19 19 20 20 20 20 20 20 20 20 20 20 19 18 18 19 19 20 21 21 22 23 23 24 24 24 23 23 22 21 20 19 20 20 20 20 19 17 16 17 17 17 18 19 19 18 18 18 18
14 13 13 13 13 14 13 10 8 8 7 8 9 9 6 6 8 9 9 10 9 10 11 11 12 14 15 14 13 14 15 16 17 18 19 20 19 20 20 20 19 20 20 20 20 19 18 18 18 18 19 20 20 21 21 22 22 22 22 23 23 23 22 22 21 20 19 19 20 20 21 20 19 17 17 17 18 18 19 19 19 19 19 18 18
15 14 13 12 11 10 9 8 8 9 9 9 11 12 10 9 10 10 9 10 12 14 15 16 19 20 19 16 15 15 15 16 18 18 18 18 18 18 18 18 19 19 19 18 18 17 17 18 19 20 21 21 21 21 21 22 22 22 22 22 23 22 21 20 19 18 19 19 20 21 21 20 19 18 18 18 18 19 19 19 19 19 19 18 18
14 13 11 10 9 9 9 9 9 10 12 13 15 15 14 13 14 16 17 17 17 18 18 16 15 16 17 15 16 18 18 17 17 17 17 17 18 18 18 18 18 17 17 17 17 18 18 19 20 21 21 21 21 21 21 21 21 21 21 22 22 21 20 19 18 18 18 19 20 20 20 19 18 18 18 18 18 19 19 19 19 19 19 19 18
13 12 11 11 11 11 11 11 11 11 12 15 17 18 18 18 17 18 20 19 17 15 15 14 14 17 18 18 19 20 19 18 18 18 18 18 18 18 17 17 16 17 17 18 18 19 19 20 21 22 22 22 22 21 21 20 20 20 20 21 21 21 20 19 18 19 19 19 19 20 19 19 18 18 18 18 18 18 19 19 19 19 19 18 18
12 12 12 12 12 12 12 12 12 12 12 14 17 19 19 17 16 15 17 17 14 13 14 17 18 19 20 21 22 21 20 20 19 19 19 18 18 17 17 16 17 18 18 19 19 19 20 20 21 21 22 22 22 21 21 20 20 20 21 22 22 21 20 19 19 19 20 20 19 19 19 19 18 18 17 17 18 18 18 18 18 18 18 17 17
8 8 8 9 10 11 12 13 13 12 12 13 14 15 15 16 16 16 16 15 15 15 17 19 20 21 21 21 20 19 19 19 18 18 18 17 16 16 17 17 17 18 18 19 19 19 19 20 21 21 21 22 22 22 22 21 21 22 23 23 23 22 21 20 20 20 21 21 20 19 19 19 18 18 17 17 18 18 18 18 18 17 17 17 17
4 5 5 6 7 8 8 8 8 9 9 10 11 12 14 16 18 19 19 17 15 16 18 20 21 21 20 19 18 18 18 17 16 16 16 16 16 17 17 17 18 18 18 18 18 19 19 20 20 20 21 22 22 22 23 23 23 24 25 24 23 22 21 21 21 21 22 22 21 20 19 19 19 18 18 18 18 18 18 17 17 16 16 16 17
5 4 5 5 7 8 8 8 7 5 5 6 6 7 13 17 19 19 20 21 20 19 19 20 21 21 20 18 17 17 16 16 16 16 16 16 17 17 18 18 18 17 17 18 18 19 19 20 20 20 21 22 23 24 25 25 25 25 24 22 22 21 21 20 21 22 23 23 22 21 20 19 19 18 18 18 18 18 18 17 16 16 16 16 17
Wind_Direction
239 238 237 237 237 239 239 239 239 241 243 245 246 245 242 241 241 242 240 232 225 219 213 209 206 200 198 199 203 206 209 209 212 216 221 226 233 239 245 249 256 268 279 286 291 300 311 321 328 331 327 321 322 330 333 329 323 320 321 320 310 299 293 291 286 277 270 268 268 269 271 273 275 274 272 273 276 278 280 281 281 282 284 286 290
237 239 238 237 236 237 237 238 239 240 242 245 246 244 240 239 239 238 236 231 225 220 213 209 206 203 201 202 205 208 210 212 215 219 224 231 236 242 247 250 255 263 272 278 283 291 299 307 313 317 319 315 311 313 319 322 319 312 310 312 310 303 298 294 287 277 272 270 269 268 269 271 274 273 272 272 273 276 278 280 282 283 285 288 291
233 237 239 240 239 238 237 237 237 239 241 243 244 243 239 236 235 234 232 230 225 220 214 209 208 207 205 205 207 210 212 215 219 223 228 234 238 242 246 250 254 260 266 271 278 285 291 296 301 305 309 309 304 303 305 310 312 309 307 308 307 304 301 300 294 280 269 266 268 270 270 272 275 274 273 274 275 278 279 279 280 281 284 288 291
230 234 237 239 239 239 239 239 239 239 241 242 242 242 237 234 232 230 229 227 224 221 215 211 211 211 210 209 210 211 212 215 221 227 232 237 240 242 244 248 251 255 260 266 273 280 285 289 292 293 297 299 296 294 294 297 301 302 305 306 305 305 302 299 294 283 272 266 265 267 269 271 272 270 271 274 278 281 280 280 281 283 286 288 290
228 232 235 237 237 237 237 239 240 242 242 243 243 241 236 234 231 227 224 225 222 220 217 213 213 215 214 213 214 214 214 216 222 228 234 239 241 241 241 243 248 252 256 262 269 276 280 285 286 286 290 291 287 285 285 284 287 293 300 302 301 301 301 297 292 286 280 273 267 265 265 266 268 269 272 275 277 278 279 281 284 285 286 286 288
228 230 233 235 235 235 235 237 240 242 243 243 243 240 236 235 231 223 221 223 221 219 218 215 216 218 219 218 218 218 217 218 222 228 234 238 240 240 240 242 247 252 256 261 268 273 279 284 287 287 289 288 280 279 282 279 279 286 295 299 298 298 299 296 293 290 285 278 272 268 265 265 267 272 276 277 278 279 280 281 282 283 283 283 285
229 230 232 234 235 234 235 236 239 240 241 242 241 239 237 235 229 221 219 221 221 220 219 217 218 220 221 222 222 221 221 222 224 228 232 237 240 240 241 244 250 254 258 262 267 272 279 287 291 290 288 287 280 276 280 278 275 280 289 296 297 297 297 294 292 292 289 282 277 275 272 270 271 275 278 280 281 282 283 284 283 282 282 284 286
228 229 231 232 233 234 234 235 236 238 240 241 240 237 236 235 227 219 218 220 220 220 220 219 220 222 223 225 225 225 225 225 227 228 231 235 237 237 241 246 252 256 259 262 266 271 278 288 296 293 290 290 284 276 277 277 273 274 283 291 293 292 293 291 288 288 286 282 279 276 275 274 275 279 282 284 284 285 287 289 289 288 288 290 293
227 228 230 232 232 233 233 233 235 236 237 238 237 236 236 234 226 218 218 220 220 220 221 221 222 223 224 226 226 227 228 229 230 231 231 233 234 236 241 247 252 256 259 261 265 271 277 284 292 292 289 290 287 279 276 274 271 271 276 283 287 288 288 287 285 284 281 278 275 273 272 274 277 280 283 285 286 287 290 294 296 297 297 297 297
225 227 230 233 233 233 233 233 234 237 238 238 236 235 235 233 227 220 219 220 220 220 221 223 224 225 226 227 228 230 231 232 232 231 231 232 233 237 241 246 252 257 258 261 266 271 276 282 286 286 285 286 286 283 281 276 269 268 272 278 284 286 287 287 285 282 278 274 271 269 271 276 278 279 281 283 286 289 293 297 298 299 298 298 297
226 228 231 233 234 234 235 235 235 237 239 239 236 234 233 233 228 223 221 221 221 221 222 224 225 227 228 229 230 233 234 234 233 231 232 233 235 238 242 247 254 258 260 263 265 268 277 282 283 281 280 282 284 285 286 279 269 265 268 274 281 284 285 286 284 282 278 274 272 271 274 277 277 278 281 284 287 290 294 296 296 296 296 297 298
230 231 232 234 235 235 237 238 238 238 239 240 239 235 233 232 229 225 223 222 222 223 223 225 226 228 230 231 232 234 235 234 233 232 234 235 236 240 245 251 256 259 261 263 263 270 279 280 276 274 275 277 280 283 284 278 268 263 265 269 274 278 280 283 283 282 280 276 275 276 277 277 278 279 283 287 290 292 293 294 294 295 297 299 301
232 234 235 236 236 236 238 240 240 240 241 241 240 236 233 231 230 228 226 225 224 224 225 226 227 229 232 233 234 235 235 234 233 234 236 236 239 244 250 255 258 259 261 262 264 274 279 272 267 270 272 273 276 278 279 276 267 262 264 267 271 274 277 280 282 281 279 276 276 277 278 279 281 283 286 289 291 292 292 293 294 296 298 301 302
234 236 237 238 240 240 241 242 242 242 241 241 241 238 235 232 229 228 228 227 226 226 226 227 229 231 234 235 236 237 236 234 234 235 237 239 244 249 252 255 257 257 258 259 265 275 274 263 264 271 270 270 274 275 276 275 269 263 264 267 271 274 276 279 280 279 277 276 277 278 279 281 283 285 287 289 291 292 293 294 296 298 300 301 303
236 237 239 241 243 244 244 245 245 243 241 240 241 239 236 232 229 228 228 228 229 228 228 229 231 234 236 236 237 237 235 234 234 236 240 244 249 252 252 253 255 255 257 259 264 267 260 256 263 270 270 271 273 271 270 269 266 261 261 266 271 273 275 276 277 276 275 275 277 279 281 283 285 286 288 290 292 294 295 297 299 301 302 303 305
237 237 239 242 243 244 244 245 245 245 242 240 240 239 237 234 230 228 228 229 230 230 229 229 232 236 237 237 237 236 234 233 235 238 243 247 250 251 253 253 253 254 257 260 261 259 256 258 264 267 270 272 269 266 264 262 260 258 259 264 269 271 272 274 274 275 274 275 278 280 282 284 286 288 290 292 293 295 297 299 302 304 306 308 309
235 235 238 242 243 244 244 244 245 245 243 242 242 241 239 236 233 230 229 230 231 231 230 230 231 235 238 238 237 236 233 233 237 241 244 248 250 253 254 254 251 249 248 250 254 257 256 256 257 262 269 269 263 260 260 258 257 257 257 260 265 266 266 267 271 274 275 275 277 279 281 285 288 290 292 292 293 295 298 302 306 308 309 310 310
231 234 239 242 243 243 243 244 245 245 244 244 245 245 243 240 236 233 232 232 233 233 233 232 232 234 237 239 238 236 234 235 239 243 246 248 251 252 251 251 251 248 242 239 248 255 252 251 256 267 274 268 259 256 257 256 256 255 254 256 259 261 261 263 267 271 274 275 276 278 282 287 289 291 291 291 293 297 302 306 308 309 310 311 311
230 235 238 238 239 241 244 246 246 245 245 246 248 249 248 244 239 235 234 233 233 234 234 234 233 234 236 238 238 236 235 237 241 244 246 247 249 248 247 246 248 252 254 254 255 260 265 271 276 281 280 269 259 256 256 256 255 253 251 251 253 256 259 262 265 267 270 272 274 278 284 288 290 289 289 292 297 302 306 308 309 310 311 312 313
232 233 232 234 237 241 248 252 252 250 248 247 250 253 252 249 242 236 234 233 233 233 234 235 235 235 236 237 237 236 237 239 243 245 245 245 245 245 244 240 241 248 256 258 260 268 283 291 290 288 282 270 261 257 254 252 249 248 247 247 248 251 257 261 264 266 268 271 274 280 286 289 289 288 290 295 301 305 307 308 310 311 312 312 313
227 224 228 237 242 242 245 248 251 252 246 240 242 245 247 249 246 239 235 235 234 234 234 235 236 237 238 239 239 238 239 241 242 243 242 242 243 244 243 236 232 239 244 246 255 272 287 292 292 290 282 269 259 254 249 244 241 240 242 242 243 249 256 261 265 268 270 274 279 284 288 288 287 289 293 298 302 305 307 309 311 312 312 313 314
218 219 228 238 243 245 248 250 248 241 233 228 230 232 234 241 245 242 238 237 236 236 236 236 236 238 239 240 240 240 240 241 241 240 239 239 241 243 242 237 234 237 239 237 242 261 275 281 286 289 283 270 256 247 240 236 233 233 235 237 240 247 255 261 266 270 274 280 284 286 287 286 288 292 296 299 302 305 308 310 311 312 313 314 315
222 226 231 236 241 245 251 254 246 234 229 229 229 229 231 235 240 242 241 240 239 239 239 239 239 239 239 240 240 240 240 240 239 238 236 237 240 241 241 240 240 240 241 241 245 258 267 270 277 285 284 268 251 241 235 230 227 225 229 234 240 247 256 262 268 273 279 284 287 286 286 287 291 294 297 300 303 306 309 311 312 313 313 315 316
231 235 237 239 243 246 249 252 246 237 236 237 236 236 236 236 238 241 242 242 241 241 240 240 241 241 241 240 240 240 241 240 238 235 234 235 238 239 239 240 241 239 240 246 252 260 264 266 275 284 284 267 247 237 230 224 221 221 226 234 241 250 259 266 272 278 284 288 288 287 287 289 292 294 297 300 303 305 308 311 312 312 313 314 315
238 242 244 244 245 247 250 252 249 243 242 242 241 241 240 239 241 242 242 243 244 244 243 242 242 242 242 241 242 242 243 241 238 235 233 233 235 237 236 238 243 245 245 248 252 258 264 270 278 285 285 269 247 234 225 220 219 222 228 234 243 253 262 270 278 285 289 289 288 288 289 291 292 294 296 298 301 303 305 308 309 309 311 314 314
242 244 248 248 248 250 252 253 252 250 248 246 245 246 245 244 244 244 243 243 243 244 246 246 245 244 243 242 242 242 242 241 239 235 233 232 231 232 232 235 240 241 242 247 253 257 265 274 280 284 282 266 244 230 221 218 219 223 229 236 246 257 267 276 284 289 290 289 288 288 290 293 293 293 294 296 298 301 303 305 306 307 310 313 313
244 245 247 248 250 252 253 253 253 253 252 251 251 251 251 250 249 248 246 244 243 244 245 246 246 247 247 246 245 243 241 240 237 233 231 230 228 228 230 233 236 237 239 247 252 254 262 273 279 281 275 256 238 228 221 219 221 224 230 239 251 262 274 283 289 290 288 287 288 290 292 293 292 291 293 296 298 300 302 303 306 307 310 312 312
248 249 250 251 251 252 252 251 252 252 253 254 254 255 255 255 255 253 251 248 247 247 248 249 250 249 247 247 247 246 242 238 234 230 228 225 224 225 226 229 231 232 236 242 246 248 257 271 278 277 266 247 235 228 222 221 223 226 233 245 258 269 280 287 289 288 286 287 291 293 293 291 290 290 293 296 298 299 300 302 305 307 309 311 311
251 252 253 253 253 254 254 253 253 254 254 255 256 257 257 257 257 257 256 254 252 251 252 255 254 251 250 250 250 249 248 246 242 237 230 224 222 222 223 228 232 233 235 239 242 246 257 272 278 272 257 241 232 226 221 222 224 230 240 252 264 275 283 287 286 285 286 290 294 293 290 287 287 289 292 294 296 296 298 300 303 306 309 310 310
257 257 257 257 257 257 258 258 258 258 258 259 260 261 260 260 260 260 259 258 256 253 253 255 255 254 255 255 255 255 256 256 253 245 237 232 228 225 227 232 234 235 236 237 239 248 264 277 276 263 246 234 228 223 221 223 226 233 245 257 269 278 283 285 284 286 290 295 295 291 286 284 283 286 289 291 292 293 294 297 301 305 308 309 310
262 262 261 261 260 260 259 258 257 258 258 259 259 259 260 260 260 260 260 261 259 257 255 255 255 255 254 254 256 258 258 257 255 250 241 236 235 237 236 231 227 228 231 232 239 254 268 273 266 250 235 228 223 219 220 223 228 237 250 263 273 279 282 283 284 288 294 297 294 287 283 281 281 285 287 287 287 287 290 295 301 306 308 309 310
261 261 261 261 260 259 258 258 258 258 258 258 258 257 257 256 256 256 257 258 257 256 256 256 255 254 252 251 255 259 259 254 252 250 241 235 236 239 234 225 219 219 222 228 243 257 263 261 251 237 228 223 219 218 221 225 231 242 256 267 275 279 281 282 286 292 296 295 290 284 281 280 282 284 284 282 282 283 289 296 303 307 309 310 311
261 262 262 262 261 261 261 261 261 261 260 259 258 256 255 254 253 252 251 253 254 255 256 256 254 251 250 251 256 262 262 252 242 238 233 230 231 232 226 220 218 220 224 237 250 253 250 245 238 227 220 218 217 219 223 228 235 247 260 270 274 277 279 282 288 294 295 292 287 282 280 280 282 283 281 279 280 285 292 300 305 307 308 310 309
265 266 267 267 266 265 264 262 261 260 260 259 258 257 256 255 253 251 248 247 249 251 255 257 256 253 254 257 257 253 248 238 228 226 225 224 225 225 222 220 223 228 233 238 241 239 235 232 227 220 216 217 219 221 226 232 241 252 262 269 274 277 279 283 289 293 292 289 286 281 279 281 282 281 279 279 281 288 295 301 304 306 307 308 308
274 275 275 274 271 268 266 264 263 261 260 259 258 257 255 254 253 251 249 246 246 248 252 256 257 256 256 253 245 235 232 228 221 219 220 220 220 220 220 222 227 232 232 225 220 224 228 225 220 217 216 218 221 225 229 236 244 255 263 269 273 276 280 284 289 291 289 287 284 280 279 280 281 279 278 278 282 290 297 300 303 305 307 308 308
289 287 286 285 283 281 281 280 280 278 275 270 266 262 260 259 257 255 252 249 247 246 248 254 261 262 252 233 219 220 228 227 220 218 218 216 214 218 226 232 234 230 225 220 221 226 224 218 214 215 217 220 223 227 232 239 248 256 263 268 271 275 279 284 288 289 287 285 281 277 275 277 277 276 276 279 284 292 298 299 302 305 308 309 308
295 294 294 294 293 293 293 294 294 294 292 287 282 275 269 267 267 264 261 256 251 247 248 252 254 247 230 214 208 216 222 219 218 218 214 211 212 219 225 227 224 215 208 209 218 221 217 212 213 216 220 223 226 229 235 243 250 256 263 267 270 273 278 283 286 286 284 281 277 272 271 273 274 275 276 280 287 293 296 298 301 306 310 310 308
300 302 304 303 299 297 297 301 305 307 305 304 306 300 284 275 278 277 266 254 245 241 241 237 222 204 200 204 208 212 215 216 216 215 214 220 228 224 210 204 207 207 200 198 206 211 210 209 212 217 221 224 227 231 238 245 252 258 263 265 269 273 279 283 285 283 281 277 272 267 267 269 272 274 277 282 288 292 294 298 303 308 310 308 307
310 314 318 320 317 308 301 302 311 318 320 322 329 338 339 335 339 327 278 231 207 198 200 197 183 174 184 195 198 202 210 217 219 220 226 236 234 216 198 191 195 198 195 196 203 208 208 210 215 219 222 224 229 235 241 248 254 259 262 265 270 275 280 282 282 279 277 273 267 263 265 268 271 273 277 283 289 293 296 300 303 307 308 307 305
317 319 320 323 325 317 304 296 297 306 319 330 339 356 22 52 69 65 70 95 122 142 158 169 177 183 184 183 192 208 219 224 224 222 222 222 217 209 199 191 189 193 199 203 207 209 210 214 219 222 224 228 233 239 245 251 255 259 263 268 273 277 279 279 278 276 274 269 263 262 264 267 270 273 279 286 291 295 298 300 302 303 304 304 303
302 303 303 307 314 316 308 296 290 293 302 320 333 345 23 63 81 86 77 82 106 138 154 163 178 190 194 201 216 222 217 212 211 208 208 210 210 207 200 193 193 200 205 208 211 213 216 220 225 227 230 234 238 242 248 253 256 261 266 271 275 277 277 276 275 274 270 266 263 262 264 267 270 274 282 289 293 296 298 298 299 300 301 301 300
290 291 293 297 304 311 310 302 291 287 287 291 308 316 291 229 102 88 141 188 183 193 202 202 203 208 214 218 222 222 218 215 216 216 212 205 196 193 195 197 200 204 207 211 215 219 222 226 230 232 236 239 243 246 250 254 259 265 269 273 275 275 275 275 273 271 268 266 265 264 264 267 271 277 285 290 293 295 295 294 295 296 297 297 295
287 286 291 295 301 309 314 309 294 281 273 261 260 272 251 226 230 230 219 213 214 215 216 217 215 215 215 217 222 229 232 228 221 213 204 193 188 190 196 199 201 205 210 217 221 224 228 232 234 237 241 242 245 249 253 258 263 267 270 272 273 273 274 273 272 269 268 268 266 265 266 269 274 279 285 288 290 291 291 291 292 294 294 293 291
287 287 294 301 305 309 312 309 290 273 261 245 246 257 261 256 254 240 212 201 208 213 217 230 240 240 236 233 231 234 233 223 210 200 192 188 189 194 198 201 207 214 219 225 229 232 235 237 239 241 243 244 247 252 257 262 266 268 269 270 271 272 273 273 272 272 272 271 270 269 269 271 274 279 283 285 286 287 287 289 290 290 290 289 288
283 283 288 297 301 299 298 293 277 267 261 250 249 257 259 259 264 262 245 229 223 224 236 251 251 241 236 233 227 222 216 205 194 191 191 194 198 202 206 211 217 222 227 232 235 236 237 239 241 243 244 247 252 257 261 264 267 268 269 270 270 272 274 275 275 276 276 274 271 269 268 269 272 276 279 282 283 284 285 286 287 287 287 286 285
282 281 283 287 289 287 286 283 273 266 259 251 249 251 250 248 255 262 261 253 244 241 248 251 232 206 199 203 205 202 196 191 189 193 198 201 204 208 212 217 223 229 235 238 238 238 240 241 242 244 247 251 256 259 262 265 268 269 269 269 271 274 276 278 278 278 276 272 268 266 265 267 271 274 277 279 280 281 282 282 283 283 283 283 283
289 290 290 289 286 282 280 278 274 270 264 255 249 248 251 254 258 256 249 241 234 231 228 216 192 178 179 187 193 191 189 190 194 197 200 205 209 213 218 225 232 238 241 241 241 241 241 242 244 248 252 255 257 260 263 266 268 269 269 270 273 276 278 279 279 278 275 271 266 264 264 267 270 272 274 275 276 277 278 278 278 279 280 281 282
294 297 297 293 286 278 274 273 273 275 273 264 253 248 249 252 253 247 232 216 201 190 187 186 184 184 186 190 191 190 191 195 199 201 205 211 215 220 227 234 239 242 243 243 242 242 242 244 248 251 254 257 258 261 264 267 268 268 269 272 275 277 278 278 277 275 273 269 265 263 264 267 269 271 272 272 272 273 274 274 276 278 279 280 282
303 304 304 300 292 281 273 268 265 267 273 271 261 251 245 238 232 226 217 201 187 183 186 186 186 187 190 193 193 194 197 201 203 208 214 220 225 232 238 242 244 245 244 242 241 242 244 248 251 254 257 259 261 264 267 268 268 268 270 273 275 275 275 274 273 272 271 268 264 264 266 269 270 271 271 271 271 271 272 272 274 276 278 280 282
328 321 320 322 319 312 302 291 278 270 272 274 264 245 231 224 222 221 216 208 201 200 200 196 191 188 189 192 194 197 202 207 212 219 228 234 238 244 247 248 249 247 244 242 242 245 248 252 255 258 259 261 264 268 270 270 270 271 272 272 271 270 269 269 269 269 268 267 265 266 268 270 271 270 270 270 271 271 271 271 273 275 278 280 281
354 351 348 348 347 343 342 340 332 312 293 291 282 244 217 212 214 212 206 205 210 214 213 206 195 183 180 189 200 207 213 220 227 233 239 243 247 250 252 251 248 244 241 241 244 247 250 254 256 257 260 263 266 269 270 270 270 269 268 266 265 265 265 266 266 265 265 265 265 265 266 268 269 269 269 269 270 270 269 269 271 274 278 280 280
Height
3156 3157 3158 3160 3162 3164 3167 3169 3171 3172 3173 3175 3176 3178 3180 3181 3183 3184 3185 3186 3187 3188 3189 3191 3192 3193 3194 3195 3196 3198 3200 3201 3203 3204 3206 3206 3207 3207 3207 3208 3208 3209 3209 3209 3209 3209 3209 3208 3208 3208 3208 3207 3206 3205 3205 3204 3203 3202 3201 3201 3200 3200 3199 3199 3199 3199 3198 3197 3197 3196 3196 3196 3195 3195 3194 3193 3193 3192 3192 3191 3190 3190 3189 3189 3189
3154 3155 3156 3157 3159 3161 3163 3166 3168 3169 3170 3171 3172 3174 3176 3178 3180 3181 3182 3183 3184 3186 3187 3189 3190 3192 3192 3193 3194 3196 3197 3198 3200 3202 3203 3204 3205 3205 3205 3206 3207 3207 3207 3207 3207 3207 3207 3207 3206 3206 3206 3206 3205 3204 3203 3202 3202 3201 3200 3199 3198 3198 3197 3197 3197 3197 3197 3196 3195 3195 3195 3194 3194 3193 3192 3192 3191 3190 3190 3189 3188 3187 3187 3187 3187
3152 3153 3154 3155 3156 3158 3160 3162 3164 3165 3166 3167 3168 3171 3173 3175 3177 3178 3179 3180 3182 3183 3185 3186 3188 3189 3190 3191 3192 3193 3194 3196 3197 3199 3201 3202 3202 3203 3203 3204 3205 3205 3205 3205 3205 3205 3205 3205 3205 3204 3204 3204 3203 3202 3201 3201 3200 3199 3199 3198 3197 3196 3195 3195 3195 3195 3195 3195 3194 3193 3193 3193 3192 3191 3190 3190 3189 3189 3188 3187 3186 3185 3185 3185 3184
3149 3150 3151 3152 3154 3156 3157 3159 3160 3161 3162 3163 3165 3167 3169 3171 3173 3174 3176 3177 3179 3180 3182 3184 3185 3187 3188 3189 3189 3190 3191 3193 3195 3197 3198 3199 3200 3201 3201 3202 3202 3203 3203 3203 3203 3202 3202 3202 3202 3202 3202 3202 3201 3200 3199 3199 3198 3198 3197 3196 3195 3194 3193 3193 3193 3193 3193 3193 3192 3192 3191 3191 3190 3189 3189 3188 3187 3186 3186 3185 3184 3183 3183 3182 3181
3146 3147 3149 3150 3151 3153 3154 3156 3156 3157 3159 3160 3162 3164 3166 3168 3169 3171 3172 3173 3175 3177 3179 3181 3183 3184 3185 3186 3187 3188 3189 3190 3192 3194 3195 3197 3198 3198 3199 3200 3200 3200 3200 3200 3200 3200 3200 3200 3200 3199 3199 3199 3199 3198 3197 3197 3197 3196 3195 3195 3194 3193 3192 3191 3191 3190 3190 3190 3190 3190 3189 3189 3188 3187 3186 3186 3185 3184 3183 3182 3181 3181 3180 3179 3177
3143 3144 3145 3147 3148 3150 3151 3152 3153 3155 3156 3157 3159 3161 3163 3165 3166 3167 3169 3170 3172 3174 3176 3178 3180 3181 3183 3184 3185 3186 3187 3188 3189 3191 3193 3194 3195 3196 3196 3197 3198 3198 3198 3198 3198 3197 3197 3198 3197 3197 3196 3196 3196 3195 3195 3194 3194 3194 3193 3193 3192 3191 3190 3189 3188 3188 3188 3188 3188 3187 3187 3186 3185 3185 3184 3183 3182 3181 3180 3180 3179 3178 3176 3175 3175
3140 3141 3142 3143 3145 3146 3148 3149 3151 3152 3154 3155 3157 3158 3159 3161 3162 3164 3166 3167 3169 3171 3173 3175 3177 3179 3180 3181 3182 3183 3184 3185 3186 3188 3189 3191 3192 3193 3194 3195 3195 3195 3195 3195 3195 3195 3195 3195 3194 3194 3193 3193 3193 3192 3192 3191 3191 3191 3191 3191 3190 3189 3188 3187 3186 3186 3185 3185 3185 3185 3184 3183 3182 3182 3181 3179 3178 3177 3176 3176 3176 3175 3173 3172 3171
3136 3137 3139 3140 3141 3143 3145 3147 3148 3150 3151 3152 3154 3155 3156 3157 3159 3161 3163 3164 3166 3168 3170 3172 3173 3175 3177 3178 3179 3180 3181 3182 3183 3184 3186 3188 3189 3190 3191 3192 3192 3192 3192 3193 3193 3193 3193 3192 3192 3191 3191 3190 3190 3189 3189 3188 3188 3189 3188 3188 3187 3186 3185 3184 3184 3183 3183 3182 3182 3182 3181 3180 3179 3178 3177 3176 3174 3173 3172 3171 3171 3170 3169 3169 3168
3132 3134 3135 3136 3137 3140 3143 3145 3145 3147 3148 3149 3150 3151 3153 3154 3156 3158 3159 3161 3163 3165 3166 3168 3170 3171 3173 3174 3176 3177 3177 3178 3180 3181 3183 3185 3186 3188 3189 3189 3189 3189 3189 3190 3190 3191 3191 3190 3189 3188 3188 3187 3186 3186 3186 3185 3186 3186 3186 3185 3184 3184 3183 3182 3181 3181 3180 3180 3179 3179 3178 3177 3176 3175 3174 3172 3171 3170 3168 3167 3166 3165 3165 3165 3165
3128 3130 3131 3132 3134 3137 3140 3142 3142 3143 3144 3146 3147 3148 3150 3151 3152 3154 3156 3158 3159 3161 3162 3164 3166 3167 3169 3170 3171 3172 3173 3175 3176 3178 3180 3182 3183 3184 3185 3185 3185 3185 3186 3187 3188 3189 3189 3188 3187 3186 3185 3184 3183 3183 3183 3183 3183 3183 3182 3182 3181 3181 3180 3179 3178 3178 3177 3176 3176 3176 3175 3175 3174 3172 3171 3169 3168 3167 3165 3164 3162 3161 3160 3160 3160
3124 3126 3127 3129 3131 3134 3136 3138 3139 3140 3141 3142 3144 3145 3146 3148 3149 3151 3153 3154 3155 3157 3158 3160 3162 3163 3164 3166 3167 3168 3170 3172 3174 3175 3177 3178 3180 3180 3181 3181 3181 3181 3182 3184 3185 3185 3186 3186 3184 3183 3182 3181 3181 3180 3179 3179 3180 3180 3179 3178 3178 3177 3176 3176 3175 3175 3174 3173 3173 3172 3172 3172 3171 3169 3167 3166 3165 3164 3163 3161 3159 3158 3157 3155 3155
3121 3122 3124 3126 3128 3130 3132 3134 3136 3137 3138 3139 3140 3142 3143 3144 3146 3148 3149 3150 3151 3153 3154 3156 3158 3159 3160 3162 3163 3164 3166 3168 3170 3172 3173 3174 3176 3176 3177 3177 3177 3178 3179 3179 3180 3181 3183 3182 3180 3178 3178 3178 3177 3176 3176 3176 3176 3176 3176 3175 3174 3174 3173 3172 3172 3171 3171 3171 3170 3169 3169 3168 3167 3166 3164 3163 3163 3161 3159 3158 3156 3154 3153 3151 3150
3118 3119 3121 3123 3124 3126 3128 3130 3132 3133 3135 3136 3137 3138 3139 3140 3142 3144 3145 3147 3148 3149 3150 3152 3154 3155 3156 3157 3159 3160 3163 3165 3167 3168 3169 3170 3171 3172 3173 3173 3173 3174 3174 3175 3175 3177 3178 3178 3176 3175 3175 3174 3174 3173 3173 3173 3173 3173 3172 3171 3171 3170 3170 3169 3169 3168 3168 3168 3167 3166 3166 3165 3164 3163 3161 3160 3159 3158 3156 3155 3153 3151 3149 3148 3146
3114 3116 3118 3119 3121 3123 3124 3125 3127 3129 3131 3132 3133 3134 3135 3136 3138 3140 3142 3143 3143 3144 3146 3147 3149 3150 3152 3153 3155 3156 3159 3161 3163 3164 3165 3166 3167 3168 3169 3169 3169 3169 3169 3170 3171 3173 3174 3174 3173 3172 3171 3171 3170 3170 3170 3169 3169 3169 3169 3168 3167 3166 3166 3165 3165 3165 3165 3165 3164 3164 3163 3162 3161 3160 3158 3157 3155 3154 3152 3151 3149 3147 3146 3144 3143
3111 3112 3114 3116 3117 3119 3120 3121 3123 3125 3127 3128 3128 3129 3130 3132 3134 3136 3137 3138 3139 3140 3142 3143 3145 3146 3148 3149 3150 3152 3155 3157 3158 3159 3160 3162 3163 3163 3164 3165 3164 3164 3165 3166 3167 3169 3170 3171 3170 3169 3168 3167 3167 3166 3166 3165 3165 3165 3164 3164 3163 3162 3162 3162 3162 3162 3162 3162 3161 3161 3160 3159 3158 3157 3155 3153 3152 3150 3149 3147 3145 3143 3142 3140 3139
3107 3108 3110 3111 3113 3114 3115 3117 3118 3120 3122 3123 3123 3124 3126 3127 3129 3131 3133 3134 3135 3137 3138 3139 3140 3142 3143 3144 3146 3148 3151 3152 3153 3154 3156 3157 3157 3158 3159 3160 3159 3160 3161 3162 3164 3166 3167 3168 3168 3166 3164 3164 3163 3162 3162 3161 3161 3161 3160 3160 3159 3159 3159 3159 3159 3159 3159 3159 3158 3158 3157 3156 3155 3153 3152 3150 3148 3147 3145 3143 3141 3139 3137 3135 3134
3102 3104 3106 3107 3109 3110 3111 3113 3114 3116 3118 3118 3119 3120 3121 3123 3125 3127 3128 3129 3130 3131 3133 3135 3137 3138 3139 3140 3142 3144 3146 3147 3148 3149 3151 3151 3152 3152 3154 3155 3154 3155 3158 3160 3162 3163 3164 3164 3164 3163 3161 3160 3159 3159 3158 3157 3157 3157 3156 3156 3155 3156 3156 3156 3156 3156 3156 3156 3155 3154 3154 3153 3151 3150 3148 3147 3145 3143 3141 3140 3138 3135 3133 3131 3129
3098 3100 3102 3104 3105 3107 3108 3109 3111 3112 3113 3114 3115 3116 3117 3119 3121 3122 3124 3125 3126 3127 3129 3131 3133 3134 3134 3135 3137 3140 3142 3142 3142 3144 3145 3146 3145 3146 3148 3149 3148 3150 3153 3155 3156 3157 3157 3158 3158 3158 3157 3156 3155 3154 3154 3153 3153 3153 3152 3152 3152 3152 3153 3153 3153 3153 3153 3152 3151 3151 3150 3149 3148 3146 3145 3143 3141 3140 3138 3136 3134 3132 3129 3127 3124
3094 3097 3099 3102 3103 3104 3105 3106 3107 3109 3110 3111 3112 3113 3114 3115 3116 3118 3119 3121 3122 3124 3125 3127 3128 3129 3130 3131 3133 3135 3136 3137 3137 3138 3139 3139 3139 3139 3141 3142 3144 3146 3147 3148 3149 3150 3150 3151 3152 3152 3151 3150 3150 3149 3149 3149 3149 3149 3149 3148 3149 3149 3150 3150 3149 3150 3149 3149 3148 3147 3146 3146 3144 3143 3141 3139 3138 3136 3134 3132 3130 3128 3125 3123 3120
3092 3095 3097 3099 3100 3101 3102 3103 3104 3105 3106 3107 3108 3109 3110 3111 3112 3113 3115 3116 3118 3119 3120 3122 3123 3124 3125 3125 3127 3130 3131 3131 3131 3132 3132 3132 3132 3133 3134 3135 3140 3143 3142 3143 3144 3144 3143 3144 3145 3146 3146 3145 3145 3145 3145 3145 3145 3145 3145 3145 3146 3146 3146 3146 3146 3146 3146 3145 3144 3144 3143 3142 3141 3139 3137 3136 3134 3133 3131 3129 3127 3124 3121 3119 3117
3090 3092 3094 3095 3096 3097 3099 3100 3100 3101 3102 3103 3104 3105 3106 3106 3107 3108 3110 3111 3112 3113 3115 3117 3117 3118 3119 3120 3122 3124 3125 3125 3125 3125 3125 3125 3126 3127 3127 3129 3135 3139 3138 3138 3138 3136 3136 3138 3140 3140 3141 3141 3141 3141 3142 3142 3141 3141 3142 3142 3143 3143 3143 3142 3142 3142 3142 3141 3141 3140 3140 3139 3137 3135 3134 3132 3131 3129 3127 3125 3123 3121 3118 3116 3114
3086 3088 3090 3091 3092 3094 3095 3096 3097 3098 3098 3099 3099 3100 3100 3102 3103 3104 3105 3106 3107 3109 3110 3111 3112 3113 3114 3114 3116 3118 3119 3119 3119 3118 3119 3119 3119 3120 3122 3124 3128 3131 3132 3132 3131 3129 3129 3132 3135 3136 3137 3137 3138 3138 3138 3138 3138 3138 3139 3139 3140 3140 3139 3139 3139 3138 3138 3138 3137 3137 3137 3135 3133 3132 3130 3129 3128 3126 3124 3122 3120 3118 3116 3113 3111
3082 3084 3085 3087 3088 3089 3091 3091 3093 3094 3094 3095 3095 3095 3096 3097 3098 3099 3099 3100 3102 3104 3105 3106 3106 3107 3107 3108 3109 3111 3112 3113 3112 3112 3113 3113 3113 3114 3117 3119 3121 3123 3124 3125 3124 3123 3124 3126 3129 3131 3133 3133 3133 3133 3133 3134 3134 3135 3135 3136 3136 3136 3136 3135 3135 3135 3135 3135 3134 3134 3133 3132 3130 3128 3127 3125 3124 3122 3120 3119 3117 3115 3113 3111 3109
3078 3079 3081 3082 3083 3085 3086 3087 3088 3090 3090 3091 3091 3092 3092 3092 3092 3093 3094 3095 3096 3097 3099 3099 3100 3100 3101 3102 3104 3105 3105 3105 3106 3106 3107 3108 3108 3109 3112 3114 3114 3116 3118 3118 3118 3118 3120 3121 3122 3125 3127 3128 3128 3128 3129 3130 3131 3132 3132 3133 3133 3133 3132 3132 3132 3132 3132 3131 3131 3130 3129 3128 3127 3125 3124 3122 3120 3118 3117 3116 3114 3112 3111 3109 3108
3073 3075 3076 3078 3079 3080 3082 3083 3084 3085 3086 3086 3087 3087 3087 3088 3088 3088 3089 3089 3090 3091 3092 3092 3093 3093 3094 3095 3098 3099 3099 3099 3100 3102 3102 3102 3103 3105 3108 3108 3109 3111 3112 3113 3114 3115 3116 3116 3117 3119 3121 3122 3122 3123 3124 3126 3127 3128 3129 3130 3130 3129 3129 3129 3129 3129 3128 3128 3127 3127 3126 3125 3124 3122 3120 3119 3117 3115 3114 3113 3112 3110 3108 3107 3106
3070 3071 3072 3074 3075 3076 3076 3077 3078 3079 3080 3081 3081 3082 3083 3083 3083 3084 3084 3084 3084 3084 3085 3086 3086 3087 3087 3089 3090 3091 3091 3093 3095 3096 3096 3096 3097 3100 3103 3104 3105 3106 3107 3108 3109 3111 3111 3111 3112 3115 3116 3117 3118 3119 3121 3122 3124 3125 3126 3126 3126 3126 3126 3126 3125 3125 3125 3124 3124 3123 3122 3121 3120 3119 3117 3116 3114 3113 3111 3111 3110 3108 3106 3105 3103
3065 3067 3067 3068 3069 3070 3070 3071 3072 3073 3074 3074 3075 3076 3077 3078 3078 3078 3079 3079 3078 3078 3079 3079 3080 3081 3081 3082 3083 3083 3084 3087 3088 3089 3088 3089 3092 3095 3097 3099 3099 3100 3101 3103 3105 3107 3108 3107 3108 3111 3112 3113 3114 3116 3117 3119 3120 3122 3123 3123 3123 3123 3122 3122 3122 3122 3121 3121 3120 3119 3119 3118 3117 3115 3114 3113 3111 3110 3109 3108 3107 3105 3104 3102 3101
3061 3062 3062 3063 3063 3063 3064 3065 3065 3065 3066 3067 3068 3069 3070 3071 3071 3071 3072 3073 3073 3073 3074 3074 3074 3075 3075 3076 3076 3077 3078 3080 3082 3082 3081 3083 3087 3089 3091 3093 3094 3094 3096 3099 3101 3104 3104 3104 3105 3107 3109 3109 3111 3112 3114 3116 3117 3118 3119 3119 3119 3119 3119 3119 3119 3119 3118 3117 3117 3116 3115 3114 3113 3112 3111 3109 3108 3107 3106 3105 3104 3102 3101 3100 3099
3056 3056 3057 3057 3057 3057 3058 3058 3058 3058 3059 3060 3060 3061 3062 3063 3063 3064 3065 3067 3067 3068 3068 3069 3070 3071 3071 3071 3072 3071 3072 3075 3079 3081 3082 3083 3084 3085 3087 3089 3090 3091 3093 3096 3098 3100 3101 3100 3101 3103 3105 3106 3107 3109 3110 3112 3114 3115 3115 3115 3115 3115 3116 3116 3116 3115 3115 3114 3113 3113 3112 3111 3110 3109 3108 3107 3106 3104 3103 3102 3101 3100 3098 3097 3096
3051 3051 3052 3052 3052 3052 3052 3052 3052 3053 3053 3054 3054 3055 3055 3055 3055 3055 3056 3058 3060 3061 3062 3063 3063 3064 3065 3067 3067 3067 3069 3073 3076 3079 3082 3083 3083 3084 3085 3085 3086 3087 3089 3092 3094 3097 3097 3096 3096 3099 3100 3101 3103 3105 3107 3109 3110 3111 3111 3112 3112 3112 3112 3112 3112 3112 3111 3110 3110 3109 3109 3108 3107 3106 3105 3104 3103 3102 3101 3099 3098 3097 3096 3095 3094
3045 3046 3046 3046 3045 3045 3045 3045 3046 3047 3047 3048 3048 3047 3047 3047 3047 3046 3048 3050 3052 3054 3054 3055 3055 3055 3057 3060 3060 3060 3063 3068 3070 3072 3076 3078 3079 3081 3081 3081 3082 3083 3084 3086 3089 3092 3093 3091 3091 3093 3095 3097 3099 3101 3103 3105 3106 3107 3108 3108 3108 3109 3109 3109 3109 3108 3107 3107 3107 3106 3106 3105 3104 3103 3102 3101 3100 3099 3098 3097 3096 3095 3094 3093 3091
3039 3039 3039 3038 3038 3038 3038 3039 3039 3040 3040 3040 3039 3039 3039 3038 3037 3037 3039 3041 3043 3045 3046 3046 3046 3047 3049 3050 3050 3050 3054 3059 3062 3064 3067 3069 3071 3075 3076 3075 3075 3077 3078 3081 3084 3087 3088 3087 3086 3088 3090 3092 3095 3097 3099 3101 3102 3103 3104 3105 3105 3105 3105 3105 3105 3104 3104 3104 3103 3103 3102 3102 3101 3100 3099 3098 3098 3097 3096 3094 3093 3092 3091 3090 3089
3032 3032 3032 3032 3032 3032 3032 3032 3033 3032 3032 3031 3030 3030 3029 3028 3028 3029 3030 3031 3034 3036 3037 3037 3038 3039 3038 3038 3040 3043 3047 3051 3053 3056 3058 3062 3065 3069 3071 3072 3072 3073 3074 3076 3079 3081 3083 3083 3083 3084 3086 3088 3090 3093 3095 3097 3098 3100 3101 3101 3101 3102 3102 3102 3101 3100 3100 3100 3100 3100 3099 3099 3098 3097 3096 3096 3095 3094 3093 3092 3091 3090 3089 3088 3087
3027 3027 3026 3026 3026 3026 3026 3026 3025 3024 3024 3022 3022 3022 3021 3019 3019 3019 3020 3022 3024 3026 3027 3028 3029 3029 3028 3029 3033 3038 3041 3044 3047 3049 3052 3056 3060 3063 3068 3071 3071 3072 3073 3073 3074 3075 3077 3079 3079 3080 3082 3084 3086 3089 3091 3093 3095 3096 3097 3098 3098 3098 3098 3098 3097 3097 3097 3097 3097 3096 3096 3096 3095 3094 3093 3093 3092 3091 3090 3089 3089 3088 3087 3086 3084
3022 3022 3021 3021 3020 3020 3020 3019 3018 3017 3016 3015 3014 3013 3011 3011 3010 3009 3010 3013 3015 3017 3018 3018 3018 3019 3021 3023 3028 3033 3036 3038 3041 3044 3047 3051 3055 3060 3065 3068 3069 3070 3070 3069 3069 3070 3073 3075 3076 3076 3078 3080 3082 3085 3087 3089 3091 3093 3094 3094 3094 3095 3095 3094 3093 3093 3093 3093 3093 3093 3093 3092 3092 3091 3090 3090 3089 3088 3087 3087 3086 3085 3084 3083 3081
3019 3018 3017 3016 3015 3015 3014 3014 3013 3011 3009 3007 3006 3004 3003 3002 3000 2999 3001 3003 3005 3008 3010 3012 3012 3014 3018 3021 3023 3027 3031 3034 3037 3040 3043 3047 3052 3058 3063 3067 3068 3068 3067 3066 3065 3067 3070 3072 3072 3073 3074 3077 3079 3082 3084 3086 3088 3089 3090 3090 3091 3091 3091 3090 3090 3090 3090 3090 3090 3090 3090 3090 3089 3088 3088 3087 3086 3085 3085 3084 3083 3082 3081 3080 3078
3016 3015 3014 3013 3012 3011 3011 3010 3008 3006 3003 3000 2998 2996 2996 2995 2993 2992 2991 2993 2997 3000 3005 3009 3009 3007 3006 3011 3017 3022 3027 3032 3035 3037 3040 3044 3048 3053 3058 3063 3066 3067 3065 3063 3062 3064 3066 3068 3068 3070 3072 3074 3076 3078 3080 3082 3084 3085 3086 3087 3087 3088 3087 3087 3086 3087 3087 3087 3087 3087 3087 3087 3086 3085 3085 3084 3083 3082 3082 3081 3080 3079 3078 3076 3075
3013 3013 3012 3012 3010 3009 3008 3007 3006 3003 3000 2998 2995 2992 2990 2990 2990 2987 2980 2977 2982 2989 2997 3004 3006 3000 2997 3004 3014 3020 3024 3029 3032 3035 3038 3041 3045 3049 3054 3059 3063 3065 3064 3063 3061 3062 3063 3065 3066 3067 3069 3071 3073 3075 3077 3078 3080 3081 3082 3083 3084 3084 3083 3083 3083 3083 3083 3083 3083 3084 3084 3084 3083 3083 3082 3081 3080 3079 3079 3078 3077 3076 3075 3073 3072
3012 3011 3011 3010 3009 3008 3007 3005 3004 3002 3000 2998 2995 2992 2990 2989 2990 2989 2981 2974 2976 2983 2991 2999 3003 3002 3003 3009 3015 3020 3024 3028 3031 3034 3037 3040 3043 3047 3051 3055 3059 3061 3062 3062 3061 3061 3062 3063 3064 3066 3067 3069 3071 3072 3073 3075 3076 3077 3078 3079 3079 3079 3079 3079 3079 3080 3080 3080 3080 3080 3081 3081 3080 3080 3079 3078 3077 3076 3075 3074 3073 3073 3072 3071 3070
3011 3010 3010 3009 3008 3007 3005 3005 3004 3002 3001 2999 2997 2995 2995 2994 2995 2996 2994 2989 2989 2992 2996 3000 3003 3006 3009 3014 3018 3021 3025 3028 3031 3034 3036 3039 3042 3046 3048 3052 3055 3058 3060 3060 3060 3060 3061 3062 3063 3064 3065 3067 3068 3069 3070 3071 3072 3073 3074 3075 3075 3075 3075 3075 3076 3076 3076 3076 3076 3077 3078 3078 3077 3077 3076 3075 3073 3073 3072 3071 3070 3070 3069 3068 3067
3010 3010 3009 3008 3007 3005 3004 3004 3003 3003 3002 3001 2999 2999 2999 2999 2999 3000 3000 3000 3000 3001 3003 3005 3007 3009 3013 3016 3019 3022 3025 3028 3030 3033 3035 3037 3041 3044 3046 3050 3053 3056 3057 3058 3058 3059 3060 3061 3062 3062 3063 3064 3065 3065 3066 3068 3069 3070 3070 3070 3070 3071 3071 3071 3072 3072 3072 3072 3073 3073 3074 3074 3074 3073 3072 3071 3070 3069 3068 3068 3067 3067 3066 3066 3065
3008 3008 3007 3006 3005 3003 3002 3001 3001 3002 3002 3001 3001 3001 3002 3002 3002 3002 3003 3004 3004 3005 3006 3008 3009 3011 3014 3017 3019 3021 3024 3026 3028 3031 3033 3036 3039 3042 3045 3048 3051 3053 3055 3056 3056 3057 3058 3059 3059 3060 3060 3061 3061 3062 3063 3064 3065 3066 3066 3066 3066 3067 3067 3067 3068 3068 3068 3068 3069 3070 3070 3070 3070 3069 3068 3067 3067 3066 3065 3065 3065 3064 3063 3063 3062
3007 3006 3005 3004 3003 3001 3000 2999 2999 3001 3002 3002 3002 3003 3004 3004 3004 3004 3004 3005 3006 3007 3008 3009 3011 3012 3014 3016 3018 3020 3022 3024 3026 3029 3032 3035 3038 3041 3044 3047 3049 3051 3052 3053 3054 3055 3056 3056 3056 3057 3057 3057 3058 3059 3060 3061 3062 3062 3062 3062 3062 3063 3063 3064 3064 3064 3064 3065 3065 3066 3067 3067 3066 3066 3065 3064 3064 3063 3063 3062 3062 3061 3061 3060 3059
3005 3004 3003 3003 3001 3000 3000 2999 2999 3000 3001 3002 3002 3003 3004 3005 3004 3004 3004 3005 3006 3008 3009 3010 3010 3011 3013 3015 3016 3018 3020 3022 3024 3027 3030 3033 3036 3040 3042 3045 3047 3048 3049 3051 3052 3052 3053 3053 3053 3054 3054 3055 3055 3056 3057 3057 3058 3058 3058 3058 3058 3059 3059 3060 3061 3061 3061 3062 3062 3063 3063 3063 3063 3062 3061 3061 3061 3060 3060 3059 3059 3058 3058 3057 3057
3004 3003 3002 3001 3001 3000 2999 2999 2999 3000 3001 3001 3001 3002 3003 3004 3004 3004 3004 3005 3006 3007 3007 3008 3008 3009 3010 3012 3015 3016 3018 3021 3024 3027 3030 3033 3035 3038 3040 3043 3044 3046 3047 3048 3049 3049 3050 3050 3051 3051 3051 3052 3052 3053 3053 3054 3054 3054 3054 3054 3055 3055 3056 3057 3057 3058 3058 3059 3059 3060 3060 3060 3059 3059 3058 3058 3058 3057 3057 3056 3056 3055 3055 3055 3054
3002 3002 3001 3000 3000 2999 2999 2999 3000 3000 3001 3001 3001 3001 3002 3003 3004 3004 3004 3004 3005 3005 3005 3006 3007 3007 3008 3011 3014 3016 3018 3021 3024 3027 3029 3032 3034 3036 3039 3041 3042 3043 3044 3045 3046 3046 3047 3047 3048 3048 3048 3049 3049 3049 3050 3050 3050 3051 3051 3051 3052 3052 3053 3054 3054 3055 3055 3056 3056 3056 3056 3056 3056 3056 3055 3055 3055 3054 3054 3054 3053 3053 3053 3052 3052
3001 3001 3000 2999 2999 2998 2998 2998 2998 2998 2999 2999 2999 3000 3000 3001 3002 3002 3002 3003 3003 3003 3004 3006 3008 3009 3010 3012 3014 3016 3019 3021 3024 3026 3028 3031 3033 3035 3037 3038 3040 3041 3041 3042 3043 3043 3044 3044 3044 3045 3045 3045 3046 3046 3046 3046 3047 3047 3048 3048 3049 3049 3050 3050 3051 3051 3052 3052 3053 3053 3053 3053 3053 3052 3052 3052 3052 3052 3051 3051 3051 3050 3050 3050 3049
3000 2999 2999 2998 2997 2996 2996 2996 2997 2997 2997 2997 2997 2997 2997 2999 3000 3000 3001 3002 3002 3002 3004 3007 3008 3010 3012 3013 3015 3017 3019 3021 3023 3025 3027 3029 3031 3033 3034 3036 3037 3038 3038 3039 3039 3040 3040 3041 3041 3041 3041 3042 3042 3042 3042 3043 3044 3044 3045 3046 3046 3046 3047 3047 3048 3048 3049 3049 3050 3050 3050 3050 3050 3049 3049 3049 3049 3049 3049 3049 3048 3048 3047 3047 3047
2998 2998 2997 2996 2995 2994 2994 2994 2994 2995 2995 2995 2995 2995 2995 2996 2998 2999 3000 3001 3001 3002 3004 3006 3008 3010 3012 3013 3015 3016 3018 3020 3022 3024 3026 3027 3029 3030 3031 3032 3033 3034 3035 3035 3036 3037 3037 3038 3038 3038 3038 3038 3038 3038 3039 3040 3041 3042 3043 3043 3043 3043 3043 3044 3044 3045 3046 3046 3047 3047 3047 3047 3047 3046 3046 3046 3046 3046 3046 3046 3045 3045 3045 3044 3044
2996 2995 2995 2994 2993 2992 2992 2991 2991 2992 2993 2993 2994 2994 2994 2995 2996 2997 2998 2999 3001 3002 3004 3005 3007 3008 3009 3012 3013 3015 3016 3018 3020 3022 3024 3025 3026 3027 3028 3029 3030 3031 3032 3032 3033 3033 3034 3034 3035 3035 3035 3035 3035 3035 3036 3037 3038 3039 3040 3040 3040 3040 3040 3041 3041 3042 3043 3043 3043 3043 3043 3043 3043 3043 3043 3043 3043 3043 3043 3043 3043 3042 3042 3041 3041
2994 2994 2993 2992 2991 2991 2990 2990 2990 2991 2991 2992 2992 2993 2993 2993 2994 2995 2996 2997 3000 3002 3003 3005 3005 3005 3006 3009 3012 3013 3014 3016 3018 3019 3021 3022 3023 3024 3025 3026 3027 3028 3029 3029 3030 3030 3031 3031 3031 3031 3031 3031 3031 3032 3033 3034 3035 3036 3036 3037 3037 3037 3037 3038 3038 3039 3040 3040 3040 3040 3040 3040 3040 3040 3040 3040 3040 3040 3040 3040 3040 3039 3039 3039 3039